AAL1106 KPHL-KCLT

Flight info

Callsign AAL1106
Flight time N/A
Altitude 40000
Route STOEN Q75 GVE AIROW CHSLY6
Aircraft B77W/H-SDE1E2E3FGHIJ2J3J4J5M1RWXY/LB1D1

Departure

Time 2026-05-04 00:36
Airport Philadelphia International Airport (KPHL)

Arrival

Time N/A
Airport Charlotte Douglas International Airport (KCLT)
Time Latitude Longitude Altitude Speed Heading
2026-05-04 00:02 39.87197 -75.25264 30 ft 0 kts 36°
2026-05-04 00:25 39.87181 -75.25278 28 ft 3 kts 34°
2026-05-04 00:25 39.87158 -75.25297 28 ft 4 kts 32°
2026-05-04 00:26 39.87135 -75.25316 28 ft 4 kts 32°
2026-05-04 00:26 39.87113 -75.25335 27 ft 4 kts 40°
2026-05-04 00:26 39.87096 -75.25359 29 ft 2 kts 73°
2026-05-04 00:26 39.87096 -75.25362 29 ft 0 kts 76°
2026-05-04 00:28 39.87103 -75.25324 26 ft 10 kts 75°
2026-05-04 00:29 39.87102 -75.25242 30 ft 9 kts 121°
2026-05-04 00:29 39.87071 -75.25183 30 ft 7 kts 104°
2026-05-04 00:29 39.87075 -75.25104 30 ft 10 kts 77°
2026-05-04 00:29 39.87093 -75.25016 30 ft 11 kts 75°
2026-05-04 00:30 39.87113 -75.24921 30 ft 11 kts 76°
2026-05-04 00:30 39.87131 -75.24819 30 ft 12 kts 76°
2026-05-04 00:30 39.87158 -75.24686 30 ft 18 kts 74°
2026-05-04 00:30 39.87193 -75.24524 30 ft 19 kts 75°
2026-05-04 00:31 39.87224 -75.24357 30 ft 19 kts 76°
2026-05-04 00:31 39.87260 -75.24186 30 ft 20 kts 75°
2026-05-04 00:31 39.87293 -75.24013 30 ft 20 kts 75°
2026-05-04 00:31 39.87324 -75.23856 30 ft 14 kts 76°
2026-05-04 00:32 39.87335 -75.23765 30 ft 8 kts 102°
2026-05-04 00:32 39.87290 -75.23721 30 ft 9 kts 161°
2026-05-04 00:32 39.87223 -75.23695 30 ft 11 kts 166°
2026-05-04 00:32 39.87146 -75.23671 30 ft 11 kts 166°
2026-05-04 00:33 39.87079 -75.23648 30 ft 8 kts 165°
2026-05-04 00:33 39.87034 -75.23633 30 ft 4 kts 165°
2026-05-04 00:33 39.87004 -75.23619 30 ft 5 kts 152°
2026-05-04 00:34 39.86989 -75.23580 30 ft 6 kts 97°
2026-05-04 00:34 39.86977 -75.23529 30 ft 6 kts 127°
2026-05-04 00:34 39.86939 -75.23498 30 ft 7 kts 161°
2026-05-04 00:34 39.86894 -75.23509 30 ft 7 kts 217°
2026-05-04 00:35 39.86866 -75.23584 30 ft 11 kts 253°
2026-05-04 00:35 39.86831 -75.23764 30 ft 40 kts 256°
2026-05-04 00:35 39.86687 -75.24484 30 ft 123 kts 256°
2026-05-04 00:35 39.86414 -75.25852 184 ft 175 kts 255°
2026-05-04 00:36 39.86087 -75.27347 1207 ft 167 kts 256°
2026-05-04 00:36 39.85769 -75.28788 2187 ft 170 kts 257°
2026-05-04 00:36 39.85561 -75.30417 2527 ft 197 kts 270°
2026-05-04 00:36 39.85537 -75.32356 2889 ft 229 kts 271°
2026-05-04 00:37 39.85518 -75.34471 3735 ft 238 kts 271°
2026-05-04 00:37 39.85484 -75.36654 4731 ft 244 kts 270°
2026-05-04 00:37 39.85433 -75.38869 5787 ft 246 kts 271°
2026-05-04 00:37 39.85370 -75.41099 6863 ft 248 kts 271°
2026-05-04 00:38 39.85299 -75.43372 7757 ft 255 kts 271°
2026-05-04 00:38 39.85218 -75.45711 8652 ft 262 kts 271°
2026-05-04 00:38 39.85129 -75.48108 9582 ft 268 kts 271°
2026-05-04 00:38 39.85035 -75.50564 10422 ft 276 kts 271°
2026-05-04 00:39 39.84935 -75.53170 10817 ft 303 kts 270°
2026-05-04 00:39 39.84823 -75.56045 11102 ft 333 kts 270°
2026-05-04 00:39 39.84696 -75.59101 11958 ft 343 kts 270°
2026-05-04 00:39 39.84563 -75.62211 13190 ft 345 kts 269°
2026-05-04 00:40 39.84473 -75.64282 14046 ft 346 kts 269°
2026-05-04 00:40 39.84292 -75.68477 15619 ft 349 kts 269°
2026-05-04 00:40 39.84157 -75.71649 16741 ft 353 kts 269°
2026-05-04 00:40 39.84018 -75.74856 17864 ft 356 kts 268°
2026-05-04 00:41 39.83609 -75.78061 18724 ft 366 kts 256°
2026-05-04 00:41 39.82662 -75.81171 19663 ft 374 kts 248°
2026-05-04 00:41 39.81302 -75.84080 20694 ft 381 kts 238°
2026-05-04 00:41 39.79625 -75.86772 21682 ft 385 kts 236°
2026-05-04 00:42 39.77900 -75.89460 22618 ft 389 kts 236°
2026-05-04 00:42 39.76177 -75.92143 23517 ft 394 kts 236°
2026-05-04 00:42 39.74419 -75.94896 24261 ft 398 kts 236°
2026-05-04 00:42 39.72653 -75.97677 25036 ft 400 kts 237°
2026-05-04 00:43 39.70881 -76.00480 25803 ft 403 kts 237°
2026-05-04 00:43 39.69099 -76.03305 26538 ft 406 kts 237°
2026-05-04 00:43 39.67303 -76.06156 27225 ft 410 kts 238°
2026-05-04 00:43 39.65496 -76.09021 27908 ft 413 kts 238°
2026-05-04 00:44 39.63669 -76.11916 28570 ft 416 kts 238°
2026-05-04 00:44 39.61826 -76.14832 29204 ft 420 kts 238°
2026-05-04 00:44 39.59968 -76.17768 29837 ft 423 kts 238°
2026-05-04 00:44 39.58072 -76.20706 30356 ft 426 kts 237°
2026-05-04 00:45 39.56146 -76.23647 30815 ft 429 kts 237°
2026-05-04 00:45 39.54203 -76.26600 31250 ft 432 kts 237°
2026-05-04 00:45 39.52255 -76.29565 31729 ft 432 kts 236°
2026-05-04 00:45 39.50314 -76.32524 32315 ft 430 kts 236°
2026-05-04 00:46 39.48387 -76.35462 32963 ft 426 kts 236°
2026-05-04 00:46 39.46467 -76.38368 33609 ft 424 kts 234°
2026-05-04 00:46 39.44435 -76.41138 34134 ft 423 kts 232°
2026-05-04 00:46 39.42368 -76.43834 34622 ft 422 kts 232°
2026-05-04 00:47 39.40298 -76.46529 34923 ft 424 kts 231°
2026-05-04 00:47 39.38215 -76.49242 35212 ft 426 kts 231°